Location: Atherton
(17.2661°S, 145.4859°E)
Time: 23:43:41
(UTC+10:00)

BlueWalker 3 - Pass Details

Date: 19 April 2026
Orbit: 447 x 458 km, 53.2° (Epoch: 11 May)

Event Time Altitude Azimuth Distance (km) Brightness Sun altitude
Rises 19:34:41 0° 336° (NNW) 2,457 5.8 -21.6°
Reaches altitude 10° 19:36:51 10° 342° (NNW) 1,590 4.7 -22.1°
Enters shadow 19:38:32 24° 356° (N) 983 3.4 -22.5°
